{"data":{"norad_id":58727,"intl_designator":"2023-185R","name":"UNICORN-2L","alt_names":[],"object_type":"PAYLOAD","status":"ACTIVE","operator":null,"country":"GER","launch_date":"2023-12-01","launch_site_code":"AFWTR","launch_vehicle":null,"mission":null,"orbit_class":"UNKNOWN","rcs_meters":null,"size_class":null,"mass_kg":null,"dimensions":null,"purposes":[],"wikipedia_slug":null,"has_3d_model":false,"image_url":null,"decayed_at":null,"tle_current":{"epoch":"2026-09-22T23:10:28.289280Z","epoch_age_seconds":36965,"freshness":"FRESH","line1":"1 58727U 23185R   26265.96560520  .00005896  00000+0  25625-3 0  9992","line2":"2 58727  97.5318 340.0044 0011609 336.8092  23.2619 15.22614096149662","mean_motion":15.22614096,"eccentricity":0.0011609,"inclination_deg":97.5318,"raan_deg":340.0044,"arg_perigee_deg":336.8092,"mean_anomaly_deg":23.2619,"bstar":0.00025625,"rev_number":14966,"period_min":94.574193407441,"perigee_km":489.97673816908,"apogee_km":505.94165832216,"semimajor_km":6876.0961982456,"source":"CELESTRAK","updated_at":"2026-09-23T09:00:18.953289Z"}}}